FIN4LK LIMC-EFHK

Flight info

Callsign FIN4LK
Flight time 2h 39m
Altitude 40000
Route LIMC/35R N0490F400 OSK6S OSKOR DCT NESTI DCT TAGIP DCT MALUG/N0493F410 DCT VATET DCT SITNI DCT NAVTI DCT LABUK DCT BAVOK DCT ROGAL DCT UNPEG DCT BOKSU DCT GUNTA M857 SOKVA DCT ANAMA DCT KEMET Q11 INTOR INTO6A EFHK/22L
Aircraft A359/H-SDE2E3GHIJ3J4J5LM1ORWXY/LB1D1

Departure

Time 2026-04-21 02:01
Airport Milan Malpensa International Airport (LIMC)

Arrival

Time 2026-04-21 04:40
Airport Helsinki Vantaa Airport (EFHK)
Time Latitude Longitude Altitude Speed Heading
2026-04-21 01:21 45.62546 8.71605 747 ft 0 kts 170°
2026-04-21 01:42 45.62562 8.71601 743 ft 4 kts 168°
2026-04-21 01:42 45.62584 8.71595 743 ft 3 kts 167°
2026-04-21 01:43 45.62604 8.71585 743 ft 4 kts 131°
2026-04-21 01:43 45.62613 8.71562 743 ft 4 kts 91°
2026-04-21 01:43 45.62611 8.71528 743 ft 4 kts 79°
2026-04-21 01:43 45.62607 8.71499 743 ft 2 kts 79°
2026-04-21 01:51 45.62609 8.71517 744 ft 5 kts 79°
2026-04-21 01:51 45.62617 8.71577 745 ft 8 kts 79°
2026-04-21 01:52 45.62629 8.71664 744 ft 10 kts 79°
2026-04-21 01:52 45.62594 8.71846 744 ft 12 kts 167°
2026-04-21 01:52 45.62505 8.71872 744 ft 14 kts 168°
2026-04-21 01:53 45.62401 8.71902 746 ft 16 kts 169°
2026-04-21 01:53 45.62283 8.71934 747 ft 18 kts 169°
2026-04-21 01:53 45.62152 8.71969 747 ft 20 kts 169°
2026-04-21 01:53 45.62008 8.72010 745 ft 22 kts 169°
2026-04-21 01:54 45.61856 8.72052 745 ft 23 kts 169°
2026-04-21 01:54 45.61701 8.72094 745 ft 23 kts 169°
2026-04-21 01:54 45.61545 8.72138 745 ft 20 kts 169°
2026-04-21 01:54 45.61404 8.72177 745 ft 21 kts 169°
2026-04-21 01:55 45.61253 8.72218 746 ft 23 kts 169°
2026-04-21 01:55 45.61095 8.72262 746 ft 22 kts 169°
2026-04-21 01:55 45.60940 8.72304 744 ft 23 kts 169°
2026-04-21 01:55 45.60798 8.72343 744 ft 17 kts 169°
2026-04-21 01:56 45.60679 8.72389 744 ft 18 kts 148°
2026-04-21 01:56 45.60634 8.72552 747 ft 19 kts 95°
2026-04-21 01:56 45.60620 8.72745 748 ft 20 kts 96°
2026-04-21 01:56 45.60604 8.72952 747 ft 22 kts 96°
2026-04-21 01:57 45.60593 8.73166 745 ft 21 kts 84°
2026-04-21 01:57 45.60688 8.73304 744 ft 21 kts 24°
2026-04-21 01:57 45.60780 8.73358 745 ft 21 kts 22°
2026-04-21 01:57 45.60970 8.73393 745 ft 22 kts 349°
2026-04-21 01:58 45.61126 8.73346 747 ft 24 kts 348°
2026-04-21 01:58 45.61239 8.73315 746 ft 25 kts 349°
2026-04-21 01:58 45.61458 8.73254 747 ft 20 kts 348°
2026-04-21 01:58 45.61591 8.73233 746 ft 19 kts 18°
2026-04-21 01:59 45.61627 8.73332 747 ft 18 kts 79°
2026-04-21 01:59 45.61606 8.73505 744 ft 19 kts 116°
2026-04-21 01:59 45.61602 8.73691 746 ft 19 kts 63°
2026-04-21 01:59 45.61695 8.73719 746 ft 3 kts 349°
2026-04-21 02:00 45.61696 8.73719 746 ft 0 kts 349°
2026-04-21 02:00 45.61739 8.73708 747 ft 29 kts 349°
2026-04-21 02:00 45.62192 8.73582 744 ft 102 kts 349°
2026-04-21 02:00 45.63096 8.73331 746 ft 162 kts 349°
2026-04-21 02:01 45.64258 8.73016 1371 ft 164 kts 351°
2026-04-21 02:01 45.65410 8.73134 1959 ft 172 kts 28°
2026-04-21 02:01 45.66257 8.74400 2229 ft 186 kts 62°
2026-04-21 02:01 45.66964 8.76025 2619 ft 198 kts 57°
2026-04-21 02:02 45.67877 8.77547 3160 ft 205 kts 45°
2026-04-21 02:02 45.68924 8.78933 3853 ft 205 kts 41°
2026-04-21 02:02 45.70005 8.80266 4524 ft 206 kts 40°
2026-04-21 02:02 45.71114 8.81597 5164 ft 208 kts 39°
2026-04-21 02:03 45.72203 8.83002 5655 ft 219 kts 51°
2026-04-21 02:03 45.72691 8.85112 6052 ft 234 kts 89°
2026-04-21 02:03 45.72206 8.87353 6631 ft 242 kts 121°
2026-04-21 02:03 45.71231 8.89346 7244 ft 247 kts 126°
2026-04-21 02:04 45.70184 8.91322 7873 ft 252 kts 127°
2026-04-21 02:04 45.69127 8.93336 8515 ft 255 kts 127°
2026-04-21 02:04 45.68076 8.95366 9173 ft 259 kts 127°
2026-04-21 02:04 45.67003 8.97455 9836 ft 262 kts 127°
2026-04-21 02:05 45.65916 8.99579 10408 ft 267 kts 127°
2026-04-21 02:05 45.64929 9.01846 10954 ft 272 kts 113°
2026-04-21 02:05 45.64547 9.04519 11366 ft 282 kts 91°
2026-04-21 02:05 45.64546 9.07421 11649 ft 299 kts 87°
2026-04-21 02:06 45.64599 9.10480 11926 ft 316 kts 87°
2026-04-21 02:06 45.64644 9.13705 12202 ft 332 kts 88°
2026-04-21 02:06 45.64676 9.17081 12467 ft 347 kts 88°
2026-04-21 02:06 45.64702 9.20552 12728 ft 361 kts 88°
2026-04-21 02:07 45.64723 9.24218 12979 ft 374 kts 88°
2026-04-21 02:07 45.64742 9.27989 13350 ft 384 kts 88°
2026-04-21 02:07 45.64758 9.31829 13818 ft 389 kts 88°
2026-04-21 02:07 45.64772 9.35714 14274 ft 393 kts 88°
2026-04-21 02:08 45.64786 9.39642 14702 ft 397 kts 88°
2026-04-21 02:08 45.64798 9.43620 15159 ft 401 kts 88°
2026-04-21 02:08 45.64809 9.47627 15607 ft 405 kts 88°
2026-04-21 02:08 45.64819 9.51678 16066 ft 408 kts 88°
2026-04-21 02:09 45.64827 9.55702 16509 ft 412 kts 89°
2026-04-21 02:09 45.64834 9.59816 16911 ft 415 kts 89°
2026-04-21 02:09 45.64843 9.63969 17351 ft 419 kts 88°
2026-04-21 02:09 45.64858 9.68148 17796 ft 422 kts 89°
2026-04-21 02:10 45.64872 9.72354 18242 ft 425 kts 89°
2026-04-21 02:10 45.64884 9.76597 18617 ft 429 kts 89°
2026-04-21 02:10 45.64894 9.80879 18999 ft 432 kts 89°
2026-04-21 02:10 45.64903 9.85196 19373 ft 435 kts 89°
2026-04-21 02:11 45.64910 9.89535 19753 ft 439 kts 89°
2026-04-21 02:11 45.64915 9.93911 20088 ft 442 kts 89°
2026-04-21 02:11 45.64919 9.98308 20466 ft 445 kts 89°
2026-04-21 02:11 45.64921 10.02762 20822 ft 448 kts 89°
2026-04-21 02:12 45.64982 10.07230 21179 ft 451 kts 84°
2026-04-21 02:12 45.65555 10.11577 21536 ft 450 kts 69°
2026-04-21 02:12 45.66870 10.15629 21903 ft 448 kts 56°
2026-04-21 02:12 45.68541 10.19394 22224 ft 449 kts 52°
2026-04-21 02:13 45.70355 10.23048 22598 ft 450 kts 50°
2026-04-21 02:13 45.72231 10.26666 22950 ft 453 kts 49°
2026-04-21 02:13 45.74097 10.30242 23332 ft 456 kts 49°
2026-04-21 02:13 45.75987 10.33906 23651 ft 459 kts 49°
2026-04-21 02:14 45.77871 10.37611 23966 ft 460 kts 50°
2026-04-21 02:14 45.79750 10.41355 24225 ft 464 kts 50°
2026-04-21 02:14 45.81624 10.45122 24503 ft 465 kts 50°
2026-04-21 02:14 45.83494 10.48911 24831 ft 466 kts 50°
2026-04-21 02:15 45.85367 10.52709 25108 ft 467 kts 50°
2026-04-21 02:15 45.87247 10.56533 25397 ft 467 kts 50°
2026-04-21 02:15 45.89120 10.60346 25672 ft 468 kts 50°
2026-04-21 02:15 45.91011 10.64183 25946 ft 473 kts 50°
2026-04-21 02:16 45.92912 10.68051 26318 ft 474 kts 50°
2026-04-21 02:16 45.94768 10.71903 26711 ft 476 kts 51°
2026-04-21 02:16 45.96531 10.75943 27055 ft 480 kts 54°
2026-04-21 02:16 45.98232 10.80103 27417 ft 484 kts 55°
2026-04-21 02:17 45.99907 10.84296 27834 ft 484 kts 55°
2026-04-21 02:17 46.01595 10.88509 28220 ft 487 kts 55°
2026-04-21 02:17 46.03305 10.92730 28643 ft 490 kts 54°
2026-04-21 02:17 46.05043 10.96965 29062 ft 493 kts 54°
2026-04-21 02:18 46.06799 11.01218 29506 ft 495 kts 54°
2026-04-21 02:18 46.08563 11.05482 29922 ft 498 kts 54°
2026-04-21 02:18 46.10340 11.09780 30294 ft 500 kts 54°
2026-04-21 02:18 46.12132 11.14114 30602 ft 504 kts 54°
2026-04-21 02:19 46.13927 11.18465 30903 ft 507 kts 54°
2026-04-21 02:19 46.15733 11.22851 31224 ft 510 kts 54°
2026-04-21 02:19 46.17554 11.27280 31541 ft 514 kts 54°
2026-04-21 02:19 46.19377 11.31728 31853 ft 517 kts 54°
2026-04-21 02:20 46.21210 11.36206 32123 ft 520 kts 54°
2026-04-21 02:20 46.23051 11.40712 32397 ft 523 kts 54°
2026-04-21 02:20 46.24902 11.45249 32639 ft 526 kts 54°
2026-04-21 02:20 46.26763 11.49816 32945 ft 528 kts 54°
2026-04-21 02:21 46.28622 11.54388 33316 ft 528 kts 54°
2026-04-21 02:21 46.30485 11.58978 33538 ft 530 kts 54°
2026-04-21 02:21 46.32331 11.63528 33882 ft 530 kts 54°
2026-04-21 02:21 46.34191 11.68128 34264 ft 529 kts 54°
2026-04-21 02:22 46.36048 11.72727 34634 ft 528 kts 54°
2026-04-21 02:22 46.37898 11.77318 35035 ft 527 kts 54°
2026-04-21 02:22 46.39742 11.81899 35379 ft 526 kts 54°
2026-04-21 02:22 46.41578 11.86465 35713 ft 525 kts 54°
2026-04-21 02:23 46.43419 11.91053 36043 ft 525 kts 55°
2026-04-21 02:23 46.45250 11.95622 36405 ft 525 kts 54°
2026-04-21 02:23 46.47084 12.00208 36759 ft 524 kts 55°
2026-04-21 02:23 46.48908 12.04775 37129 ft 523 kts 55°
2026-04-21 02:24 46.50726 12.09335 37503 ft 522 kts 55°
2026-04-21 02:24 46.52543 12.13900 37841 ft 521 kts 55°
2026-04-21 02:24 46.54354 12.18455 38220 ft 520 kts 55°
2026-04-21 02:24 46.56137 12.22951 38600 ft 519 kts 55°
2026-04-21 02:25 46.57935 12.27491 38891 ft 517 kts 56°
2026-04-21 02:25 46.59728 12.32024 39154 ft 517 kts 56°
2026-04-21 02:25 46.61520 12.36564 39421 ft 515 kts 56°
2026-04-21 02:25 46.63297 12.41078 39699 ft 513 kts 56°
2026-04-21 02:26 46.65069 12.45586 39845 ft 514 kts 56°
2026-04-21 02:26 46.66849 12.50118 39990 ft 515 kts 56°
2026-04-21 02:26 46.68629 12.54654 40050 ft 516 kts 56°
2026-04-21 02:27 46.72790 12.63036 40050 ft 507 kts 44°
2026-04-21 02:27 46.77490 12.70612 40056 ft 505 kts 43°
2026-04-21 02:28 46.82297 12.78112 40065 ft 505 kts 42°
2026-04-21 02:28 46.87106 12.85632 40055 ft 505 kts 42°
2026-04-21 02:29 46.91894 12.93173 40070 ft 506 kts 43°
2026-04-21 02:29 46.96639 13.00689 40061 ft 505 kts 43°
2026-04-21 02:30 47.01401 13.08257 40067 ft 504 kts 43°
2026-04-21 02:30 47.06154 13.15830 40071 ft 504 kts 43°
2026-04-21 02:31 47.10899 13.23410 40078 ft 504 kts 43°
2026-04-21 02:31 47.15643 13.31008 40075 ft 504 kts 43°
2026-04-21 02:32 47.20351 13.38574 40074 ft 504 kts 43°
2026-04-21 02:32 47.25089 13.46207 40074 ft 504 kts 43°
2026-04-21 02:33 47.29815 13.53844 40078 ft 504 kts 43°
2026-04-21 02:33 47.34535 13.61491 40076 ft 504 kts 43°
2026-04-21 02:34 47.39248 13.69147 40079 ft 505 kts 43°
2026-04-21 02:34 47.43968 13.76837 40085 ft 505 kts 43°
2026-04-21 02:35 47.48683 13.84544 40080 ft 505 kts 43°
2026-04-21 02:35 47.53362 13.92212 40079 ft 505 kts 43°
2026-04-21 02:36 47.58066 13.99944 40069 ft 505 kts 44°
2026-04-21 02:36 47.62742 14.07722 40074 ft 506 kts 45°
2026-04-21 02:37 47.67289 14.15701 40074 ft 507 kts 46°
2026-04-21 02:37 47.71815 14.23741 40077 ft 507 kts 46°
2026-04-21 02:38 47.76321 14.31708 40073 ft 507 kts 46°
2026-04-21 02:38 47.80873 14.39738 40079 ft 507 kts 46°
2026-04-21 02:39 47.85422 14.47779 40076 ft 507 kts 46°
2026-04-21 02:39 47.89966 14.55836 40077 ft 507 kts 46°
2026-04-21 02:40 47.94496 14.63894 40075 ft 507 kts 46°
2026-04-21 02:40 47.98995 14.71921 40072 ft 507 kts 46°
2026-04-21 02:41 48.03516 14.80013 40071 ft 507 kts 46°
2026-04-21 02:41 48.08014 14.88139 40073 ft 507 kts 47°
2026-04-21 02:42 48.12403 14.96392 40077 ft 507 kts 48°
2026-04-21 02:42 48.16778 15.04695 40076 ft 507 kts 48°
2026-04-21 02:43 48.21152 15.12976 40079 ft 507 kts 48°
2026-04-21 02:43 48.25500 15.21203 40076 ft 506 kts 48°
2026-04-21 02:44 48.29879 15.29507 40074 ft 506 kts 48°
2026-04-21 02:44 48.33505 15.36402 40072 ft 506 kts 48°
2026-04-21 02:45 48.37870 15.44730 40076 ft 506 kts 48°
2026-04-21 02:45 48.42220 15.53053 40074 ft 506 kts 49°
2026-04-21 02:46 48.46561 15.61386 40073 ft 505 kts 49°
2026-04-21 02:46 48.51592 15.71077 40079 ft 505 kts 49°
2026-04-21 02:47 48.55214 15.78074 40076 ft 505 kts 49°
2026-04-21 02:47 48.59501 15.86380 40074 ft 504 kts 49°
2026-04-21 02:48 48.63807 15.94750 40076 ft 504 kts 49°
2026-04-21 02:48 48.68105 16.03129 40077 ft 503 kts 49°
2026-04-21 02:49 48.72398 16.11526 40076 ft 503 kts 49°
2026-04-21 02:49 48.76676 16.19811 40077 ft 501 kts 45°
2026-04-21 02:50 48.81353 16.27628 40075 ft 500 kts 44°
2026-04-21 02:50 48.86096 16.35335 40076 ft 499 kts 43°
2026-04-21 02:51 48.90846 16.43037 40070 ft 499 kts 44°
2026-04-21 02:51 48.95578 16.50747 40063 ft 498 kts 44°
2026-04-21 02:52 49.00302 16.58480 40058 ft 498 kts 44°
2026-04-21 02:52 49.05013 16.66219 40053 ft 498 kts 44°
2026-04-21 02:53 49.09691 16.73927 40054 ft 497 kts 44°
2026-04-21 02:53 49.14380 16.81674 40056 ft 497 kts 44°
2026-04-21 02:54 49.19070 16.89447 40064 ft 497 kts 44°
2026-04-21 02:54 49.23754 16.97234 40056 ft 496 kts 44°
2026-04-21 02:55 49.28428 17.05027 40062 ft 496 kts 44°
2026-04-21 02:55 49.33095 17.12831 40068 ft 496 kts 45°
2026-04-21 02:56 49.37747 17.20635 40068 ft 496 kts 45°
2026-04-21 02:56 49.44717 17.32370 40068 ft 495 kts 45°
2026-04-21 02:57 49.49328 17.40164 40067 ft 495 kts 45°
2026-04-21 02:57 49.54071 17.47846 40068 ft 494 kts 42°
2026-04-21 02:58 49.58975 17.55239 40068 ft 493 kts 41°
2026-04-21 02:58 49.63878 17.62661 40070 ft 493 kts 42°
2026-04-21 02:59 49.68741 17.70141 40074 ft 493 kts 43°
2026-04-21 02:59 49.73583 17.77657 40075 ft 493 kts 43°
2026-04-21 03:00 49.78389 17.85143 40077 ft 493 kts 43°
2026-04-21 03:00 49.83229 17.92703 40079 ft 493 kts 43°
2026-04-21 03:01 49.88064 18.00274 40081 ft 493 kts 43°
2026-04-21 03:01 49.92860 18.07806 40082 ft 493 kts 43°
2026-04-21 03:02 49.97683 18.15403 40085 ft 493 kts 43°
2026-04-21 03:02 50.02723 18.22588 40087 ft 491 kts 38°
2026-04-21 03:03 50.07985 18.29398 40092 ft 491 kts 37°
2026-04-21 03:03 50.13278 18.36166 40093 ft 491 kts 37°
2026-04-21 03:04 50.18525 18.42892 40094 ft 491 kts 37°
2026-04-21 03:04 50.23803 18.49693 40098 ft 491 kts 37°
2026-04-21 03:05 50.29076 18.56514 40097 ft 491 kts 38°
2026-04-21 03:05 50.34335 18.63339 40099 ft 491 kts 38°
2026-04-21 03:06 50.39602 18.70194 40103 ft 491 kts 38°
2026-04-21 03:06 50.44859 18.77056 40104 ft 492 kts 38°
2026-04-21 03:07 50.50115 18.83938 40104 ft 492 kts 38°
2026-04-21 03:07 50.55372 18.90841 40105 ft 492 kts 38°
2026-04-21 03:08 50.60585 18.97706 40108 ft 492 kts 38°
2026-04-21 03:08 50.65825 19.04629 40111 ft 492 kts 38°
2026-04-21 03:09 50.71071 19.11580 40114 ft 492 kts 38°
2026-04-21 03:09 50.76283 19.18505 40120 ft 491 kts 38°
2026-04-21 03:10 50.81509 19.25473 40126 ft 491 kts 38°
2026-04-21 03:10 50.86743 19.32471 40129 ft 491 kts 38°
2026-04-21 03:11 50.91965 19.39474 40135 ft 491 kts 38°
2026-04-21 03:11 50.97141 19.46438 40125 ft 491 kts 38°
2026-04-21 03:12 51.02376 19.53397 40126 ft 491 kts 37°
2026-04-21 03:12 51.07705 19.60190 40131 ft 490 kts 37°
2026-04-21 03:13 51.13038 19.66985 40136 ft 490 kts 37°
2026-04-21 03:13 51.18345 19.73815 40138 ft 490 kts 37°
2026-04-21 03:14 51.23610 19.80637 40140 ft 490 kts 37°
2026-04-21 03:14 51.28894 19.87509 40142 ft 490 kts 37°
2026-04-21 03:15 51.34169 19.94389 40141 ft 489 kts 38°
2026-04-21 03:15 51.39434 20.01277 40143 ft 489 kts 38°
2026-04-21 03:16 51.44702 20.08189 40145 ft 489 kts 38°
2026-04-21 03:16 51.49967 20.15117 40145 ft 488 kts 38°
2026-04-21 03:17 51.55215 20.22046 40145 ft 488 kts 38°
2026-04-21 03:17 51.60454 20.28983 40146 ft 488 kts 38°
2026-04-21 03:18 51.65653 20.35889 40148 ft 487 kts 38°
2026-04-21 03:18 51.70886 20.42861 40149 ft 487 kts 38°
2026-04-21 03:19 51.76104 20.49835 40152 ft 487 kts 38°
2026-04-21 03:19 51.81311 20.56816 40153 ft 487 kts 38°
2026-04-21 03:20 51.86529 20.63832 40151 ft 486 kts 38°
2026-04-21 03:20 51.91697 20.70804 40152 ft 486 kts 38°
2026-04-21 03:21 51.96886 20.77825 40156 ft 486 kts 39°
2026-04-21 03:21 52.02077 20.84872 40156 ft 486 kts 39°
2026-04-21 03:22 52.07258 20.91928 40156 ft 486 kts 39°
2026-04-21 03:22 52.12442 20.99008 40159 ft 486 kts 39°
2026-04-21 03:23 52.17625 21.06110 40159 ft 486 kts 39°
2026-04-21 03:23 52.22798 21.13218 40157 ft 486 kts 39°
2026-04-21 03:24 52.27964 21.20344 40159 ft 486 kts 39°
2026-04-21 03:24 52.33125 21.27484 40159 ft 486 kts 39°
2026-04-21 03:25 52.38273 21.34630 40159 ft 485 kts 39°
2026-04-21 03:25 52.43390 21.41753 40164 ft 485 kts 39°
2026-04-21 03:26 52.48528 21.48929 40164 ft 485 kts 39°
2026-04-21 03:26 52.53668 21.56131 40166 ft 485 kts 39°
2026-04-21 03:27 52.58769 21.63299 40163 ft 484 kts 39°
2026-04-21 03:27 52.63885 21.70511 40169 ft 484 kts 40°
2026-04-21 03:28 52.69001 21.77748 40169 ft 484 kts 40°
2026-04-21 03:28 52.74113 21.85002 40171 ft 484 kts 40°
2026-04-21 03:29 52.79182 21.92218 40172 ft 484 kts 40°
2026-04-21 03:29 52.84273 21.99489 40175 ft 483 kts 40°
2026-04-21 03:30 52.89359 22.06774 40173 ft 483 kts 40°
2026-04-21 03:30 52.94415 22.14045 40175 ft 483 kts 40°
2026-04-21 03:31 52.99490 22.21362 40180 ft 483 kts 40°
2026-04-21 03:31 53.03738 22.27504 40180 ft 483 kts 40°
2026-04-21 03:32 53.08798 22.34845 40179 ft 483 kts 40°
2026-04-21 03:32 53.13826 22.42162 40177 ft 483 kts 40°
2026-04-21 03:33 53.19728 22.50781 40185 ft 482 kts 40°
2026-04-21 03:33 53.24063 22.56620 40187 ft 481 kts 33°
2026-04-21 03:34 53.30104 22.61342 40188 ft 480 kts 17°
2026-04-21 03:34 53.36544 22.64354 40184 ft 480 kts 14°
2026-04-21 03:35 53.43033 22.67109 40187 ft 481 kts 14°
2026-04-21 03:35 53.49515 22.69670 40190 ft 481 kts 12°
2026-04-21 03:36 53.56077 22.71865 40188 ft 481 kts 11°
2026-04-21 03:36 53.62647 22.73985 40189 ft 480 kts 11°
2026-04-21 03:37 53.69177 22.76103 40194 ft 480 kts 11°
2026-04-21 03:37 53.75755 22.78257 40191 ft 480 kts 12°
2026-04-21 03:38 53.82310 22.80413 40192 ft 480 kts 12°
2026-04-21 03:38 53.88867 22.82579 40195 ft 480 kts 12°
2026-04-21 03:39 53.95415 22.84748 40193 ft 479 kts 12°
2026-04-21 03:39 54.01919 22.86909 40196 ft 478 kts 12°
2026-04-21 03:40 54.08447 22.89086 40194 ft 477 kts 12°
2026-04-21 03:40 54.14960 22.91265 40200 ft 476 kts 12°
2026-04-21 03:41 54.21472 22.93451 40199 ft 476 kts 12°
2026-04-21 03:41 54.27977 22.95642 40205 ft 475 kts 12°
2026-04-21 03:42 54.34463 22.97832 40205 ft 475 kts 12°
2026-04-21 03:42 54.40900 23.00011 40206 ft 474 kts 12°
2026-04-21 03:43 54.47373 23.02213 40206 ft 474 kts 12°
2026-04-21 03:43 54.53848 23.04421 40204 ft 474 kts 12°
2026-04-21 03:44 54.60316 23.06635 40206 ft 474 kts 12°
2026-04-21 03:44 54.66793 23.08858 40206 ft 474 kts 12°
2026-04-21 03:45 54.73264 23.11086 40205 ft 474 kts 12°
2026-04-21 03:45 54.79736 23.13322 40206 ft 474 kts 12°
2026-04-21 03:46 54.86173 23.15553 40203 ft 474 kts 12°
2026-04-21 03:46 54.92639 23.17801 40207 ft 474 kts 12°
2026-04-21 03:47 54.99110 23.20059 40205 ft 474 kts 12°
2026-04-21 03:47 55.05573 23.22321 40210 ft 474 kts 12°
2026-04-21 03:48 55.12043 23.24539 40208 ft 473 kts 12°
2026-04-21 03:48 55.18503 23.26737 40211 ft 473 kts 12°
2026-04-21 03:49 55.24959 23.28950 40213 ft 472 kts 12°
2026-04-21 03:49 55.31410 23.31174 40214 ft 472 kts 12°
2026-04-21 03:50 55.37861 23.33408 40218 ft 472 kts 12°
2026-04-21 03:50 55.44302 23.35647 40218 ft 472 kts 13°
2026-04-21 03:51 55.50703 23.37877 40219 ft 472 kts 13°
2026-04-21 03:51 55.57144 23.40129 40221 ft 472 kts 13°
2026-04-21 03:52 55.63580 23.42386 40231 ft 471 kts 13°
2026-04-21 03:52 55.70043 23.44660 40229 ft 471 kts 13°
2026-04-21 03:53 55.76424 23.46915 40230 ft 471 kts 13°
2026-04-21 03:53 55.82853 23.49193 40239 ft 470 kts 13°
2026-04-21 03:54 55.89268 23.51474 40245 ft 470 kts 13°
2026-04-21 03:54 55.95679 23.53762 40236 ft 469 kts 13°
2026-04-21 03:55 56.02087 23.56055 40232 ft 469 kts 13°
2026-04-21 03:55 56.08483 23.58353 40236 ft 468 kts 13°
2026-04-21 03:56 56.14862 23.60652 40233 ft 467 kts 13°
2026-04-21 03:56 56.21230 23.62956 40238 ft 467 kts 13°
2026-04-21 03:57 56.27562 23.65254 40245 ft 466 kts 13°
2026-04-21 03:57 56.33919 23.67569 40244 ft 466 kts 13°
2026-04-21 03:58 56.40289 23.69896 40242 ft 466 kts 13°
2026-04-21 03:58 56.46597 23.72208 40247 ft 465 kts 13°
2026-04-21 03:59 56.52944 23.74544 40247 ft 465 kts 13°
2026-04-21 04:00 56.62471 23.78063 40249 ft 466 kts 13°
2026-04-21 04:00 56.68818 23.80419 40258 ft 466 kts 13°
2026-04-21 04:01 56.75167 23.82782 40259 ft 465 kts 13°
2026-04-21 04:01 56.81527 23.85157 40262 ft 466 kts 13°
2026-04-21 04:02 56.87849 23.87527 40264 ft 466 kts 13°
2026-04-21 04:02 56.94206 23.89919 40265 ft 466 kts 13°
2026-04-21 04:03 57.00568 23.92320 40266 ft 466 kts 13°
2026-04-21 04:03 57.06929 23.94729 40264 ft 466 kts 13°
2026-04-21 04:04 57.13280 23.97144 40263 ft 466 kts 13°
2026-04-21 04:04 57.19635 23.99568 40265 ft 466 kts 13°
2026-04-21 04:05 57.25946 24.01983 40261 ft 466 kts 13°
2026-04-21 04:05 57.32299 24.04424 40263 ft 466 kts 13°
2026-04-21 04:06 57.38648 24.06872 40263 ft 466 kts 13°
2026-04-21 04:06 57.44990 24.09325 40266 ft 465 kts 13°
2026-04-21 04:07 57.51336 24.11789 40262 ft 465 kts 13°
2026-04-21 04:07 57.57669 24.14256 40262 ft 465 kts 13°
2026-04-21 04:08 57.63960 24.16716 40264 ft 464 kts 13°
2026-04-21 04:08 57.70290 24.19200 40264 ft 464 kts 13°
2026-04-21 04:09 57.76627 24.21695 40266 ft 464 kts 13°
2026-04-21 04:09 57.82955 24.24196 40262 ft 464 kts 13°
2026-04-21 04:10 57.89280 24.26705 40266 ft 464 kts 13°
2026-04-21 04:10 57.95599 24.29220 40267 ft 464 kts 13°
2026-04-21 04:11 58.01881 24.31730 40267 ft 464 kts 13°
2026-04-21 04:11 58.08217 24.34271 40272 ft 465 kts 13°
2026-04-21 04:12 58.14540 24.36815 40276 ft 465 kts 13°
2026-04-21 04:12 58.20872 24.39372 40282 ft 465 kts 13°
2026-04-21 04:13 58.27200 24.41937 40292 ft 465 kts 13°
2026-04-21 04:13 58.33489 24.44496 40289 ft 465 kts 13°
2026-04-21 04:14 58.39836 24.47087 40293 ft 465 kts 13°
2026-04-21 04:14 58.46179 24.49580 40293 ft 466 kts 12°
2026-04-21 04:15 58.51496 24.51421 40033 ft 464 kts 12°
2026-04-21 04:15 58.54689 24.52505 39804 ft 465 kts 12°
2026-04-21 04:15 58.57877 24.53598 39568 ft 465 kts 12°
2026-04-21 04:15 58.61068 24.54707 39349 ft 465 kts 12°
2026-04-21 04:16 58.64255 24.55830 39132 ft 465 kts 12°
2026-04-21 04:16 58.67392 24.56943 38894 ft 465 kts 12°
2026-04-21 04:16 58.70559 24.58074 38355 ft 461 kts 12°
2026-04-21 04:16 58.73701 24.59200 37713 ft 458 kts 12°
2026-04-21 04:17 58.76837 24.60324 37052 ft 456 kts 12°
2026-04-21 04:17 58.79950 24.61443 36435 ft 454 kts 12°
2026-04-21 04:17 58.83053 24.62562 36153 ft 453 kts 12°
2026-04-21 04:17 58.86145 24.63673 35637 ft 449 kts 12°
2026-04-21 04:18 58.89213 24.64776 34963 ft 448 kts 12°
2026-04-21 04:18 58.92285 24.65883 34180 ft 448 kts 12°
2026-04-21 04:18 58.95348 24.66990 33290 ft 447 kts 12°
2026-04-21 04:18 58.98403 24.68096 32435 ft 445 kts 13°
2026-04-21 04:19 59.01407 24.69187 31601 ft 443 kts 13°
2026-04-21 04:19 59.04440 24.70291 30741 ft 442 kts 13°
2026-04-21 04:19 59.06481 24.71035 30099 ft 441 kts 13°
2026-04-21 04:19 59.09451 24.72121 29321 ft 436 kts 13°
2026-04-21 04:20 59.13400 24.73565 28473 ft 426 kts 13°
2026-04-21 04:20 59.14378 24.73923 28254 ft 424 kts 13°
2026-04-21 04:20 59.15820 24.74451 27939 ft 421 kts 13°
2026-04-21 04:20 59.18679 24.75500 27328 ft 415 kts 13°
2026-04-21 04:21 59.21498 24.76538 26716 ft 409 kts 13°
2026-04-21 04:21 59.24282 24.77563 26112 ft 405 kts 13°
2026-04-21 04:21 59.27922 24.78909 25316 ft 399 kts 13°
2026-04-21 04:21 59.29761 24.79591 24913 ft 396 kts 13°
2026-04-21 04:22 59.32461 24.80592 24328 ft 393 kts 13°
2026-04-21 04:22 59.35118 24.81579 23728 ft 390 kts 13°
2026-04-21 04:22 59.37773 24.82567 23067 ft 386 kts 13°
2026-04-21 04:22 59.40379 24.83681 22489 ft 380 kts 18°
2026-04-21 04:23 59.42860 24.85342 21932 ft 374 kts 22°
2026-04-21 04:23 59.45278 24.87177 21363 ft 372 kts 23°
2026-04-21 04:23 59.47664 24.89104 20783 ft 369 kts 24°
2026-04-21 04:23 59.50024 24.91074 20214 ft 367 kts 24°
2026-04-21 04:24 59.52364 24.93049 19619 ft 365 kts 25°
2026-04-21 04:24 59.54688 24.95014 18997 ft 362 kts 23°
2026-04-21 04:24 59.57000 24.96961 18418 ft 359 kts 23°
2026-04-21 04:24 59.59296 24.98886 17789 ft 357 kts 23°
2026-04-21 04:25 59.61574 25.00793 17173 ft 354 kts 23°
2026-04-21 04:25 59.63801 25.02660 16591 ft 351 kts 23°
2026-04-21 04:25 59.66044 25.04541 15987 ft 349 kts 23°
2026-04-21 04:25 59.68272 25.06412 15370 ft 347 kts 23°
2026-04-21 04:26 59.70484 25.08272 14791 ft 344 kts 23°
2026-04-21 04:26 59.72685 25.10124 14172 ft 342 kts 23°
2026-04-21 04:26 59.74860 25.11959 13756 ft 334 kts 23°
2026-04-21 04:26 59.76951 25.13725 13608 ft 319 kts 23°
2026-04-21 04:27 59.78954 25.15418 13464 ft 305 kts 23°
2026-04-21 04:27 59.80870 25.17040 13323 ft 293 kts 23°
2026-04-21 04:27 59.82709 25.18599 13181 ft 281 kts 23°
2026-04-21 04:27 59.84470 25.20091 13039 ft 270 kts 23°
2026-04-21 04:28 59.86164 25.21532 12899 ft 260 kts 23°
2026-04-21 04:28 59.87807 25.22932 12768 ft 259 kts 23°
2026-04-21 04:28 59.89530 25.24213 12672 ft 265 kts 17°
2026-04-21 04:28 59.91323 25.24853 12218 ft 268 kts
2026-04-21 04:29 59.93192 25.24363 11694 ft 276 kts 344°
2026-04-21 04:29 59.94856 25.22384 11250 ft 285 kts 320°
2026-04-21 04:29 59.96301 25.19711 10838 ft 282 kts 324°
2026-04-21 04:29 59.97793 25.17173 10427 ft 279 kts 322°
2026-04-21 04:30 59.99224 25.14564 9795 ft 278 kts 320°
2026-04-21 04:30 60.00603 25.11857 9134 ft 277 kts 318°
2026-04-21 04:30 60.01919 25.09061 8494 ft 274 kts 315°
2026-04-21 04:30 60.03156 25.06198 7690 ft 271 kts 313°
2026-04-21 04:31 60.04295 25.03301 7085 ft 264 kts 309°
2026-04-21 04:31 60.05342 25.00345 6715 ft 264 kts 307°
2026-04-21 04:31 60.06318 24.97233 6378 ft 264 kts 303°
2026-04-21 04:31 60.07146 24.93942 6239 ft 266 kts 295°
2026-04-21 04:32 60.07816 24.90471 6023 ft 267 kts 293°
2026-04-21 04:32 60.08435 24.87004 5763 ft 263 kts 292°
2026-04-21 04:32 60.09032 24.83550 5538 ft 258 kts 291°
2026-04-21 04:32 60.09586 24.80272 5402 ft 239 kts 291°
2026-04-21 04:33 60.10081 24.77202 5233 ft 229 kts 288°
2026-04-21 04:33 60.10431 24.74074 4802 ft 229 kts 289°
2026-04-21 04:33 60.11168 24.71245 4164 ft 231 kts 307°
2026-04-21 04:33 60.12134 24.68678 3612 ft 229 kts 310°
2026-04-21 04:34 60.13107 24.66210 3336 ft 221 kts 309°
2026-04-21 04:34 60.14062 24.63783 3303 ft 217 kts 309°
2026-04-21 04:34 60.15222 24.62104 3275 ft 207 kts 346°
2026-04-21 04:34 60.16620 24.62385 3309 ft 207 kts 26°
2026-04-21 04:35 60.17748 24.64163 3287 ft 205 kts 46°
2026-04-21 04:35 60.18633 24.66289 3307 ft 193 kts 47°
2026-04-21 04:35 60.19520 24.68278 3335 ft 188 kts 45°
2026-04-21 04:35 60.20240 24.69842 3317 ft 188 kts 45°
2026-04-21 04:36 60.21166 24.71822 3171 ft 198 kts 44°
2026-04-21 04:36 60.22096 24.73825 2891 ft 190 kts 45°
2026-04-21 04:36 60.22968 24.75754 2614 ft 180 kts 45°
2026-04-21 04:36 60.23783 24.77539 2414 ft 167 kts 45°
2026-04-21 04:37 60.24555 24.79233 2141 ft 158 kts 44°
2026-04-21 04:37 60.25281 24.80816 1938 ft 152 kts 44°
2026-04-21 04:37 60.25980 24.82353 1739 ft 145 kts 43°
2026-04-21 04:37 60.26646 24.83803 1518 ft 136 kts 44°
2026-04-21 04:38 60.27271 24.85182 1344 ft 132 kts 43°
2026-04-21 04:38 60.27891 24.86496 1152 ft 128 kts 42°
2026-04-21 04:38 60.28477 24.87808 978 ft 128 kts 45°
2026-04-21 04:38 60.29074 24.89153 812 ft 129 kts 45°
2026-04-21 04:39 60.29689 24.90467 620 ft 129 kts 44°
2026-04-21 04:39 60.30292 24.91805 415 ft 129 kts 45°
2026-04-21 04:39 60.30904 24.93146 270 ft 130 kts 45°
2026-04-21 04:39 60.31520 24.94496 170 ft 127 kts 44°
2026-04-21 04:40 60.32019 24.95595 168 ft 72 kts 47°
2026-04-21 04:40 60.32241 24.96085 171 ft 37 kts 47°
2026-04-21 04:40 60.32377 24.96392 169 ft 22 kts 59°
2026-04-21 04:40 60.32320 24.96650 168 ft 23 kts 150°
2026-04-21 04:41 60.32201 24.96738 167 ft 16 kts 204°
2026-04-21 04:41 60.32116 24.96562 168 ft 17 kts 228°
2026-04-21 04:41 60.32030 24.96374 168 ft 20 kts 227°
2026-04-21 04:41 60.31940 24.96180 168 ft 13 kts 227°
2026-04-21 04:42 60.31859 24.96130 168 ft 13 kts 175°
2026-04-21 04:42 60.31781 24.96020 168 ft 15 kts 227°
2026-04-21 04:42 60.31705 24.95852 168 ft 12 kts 227°
2026-04-21 04:42 60.31651 24.95721 168 ft 12 kts 242°
2026-04-21 04:43 60.31629 24.95547 168 ft 14 kts 239°
2026-04-21 04:43 60.31557 24.95382 168 ft 17 kts 226°
2026-04-21 04:43 60.31471 24.95247 168 ft 12 kts 175°
2026-04-21 04:43 60.31457 24.95351 168 ft 9 kts 69°
2026-04-21 04:44 60.31499 24.95457 168 ft 7 kts 49°
2026-04-21 04:44 60.31506 24.95522 168 ft 5 kts 109°
2026-04-21 04:44 60.31479 24.95583 168 ft 3 kts 136°
2026-04-21 04:44 60.31468 24.95603 168 ft 0 kts 136°
2026-04-21 04:45 60.31468 24.95604 168 ft 0 kts 136°